This demonstration page uses our WeatherBlox Daily Observations layout. Learn more.

Left ArrowRight Arrow

40.97296, -117.73568

Hourly Observations for March 19, 2016

Temp ( °F °C ) Dew Point ( °F °C ) Humidity (%) Winds ( mph kmh ) Pressure ( in mb ) Visibility ( mi km ) Precip ( " mm )
12:56 am 00:56 Clear 44 6.7 31 -0.6 60 60 E 8 13 30.03 1017 10 16 0.00 0.00
1:56 am 01:56 Clear 36 2.2 29 -1.7 76 76 ESE 7 11 30.05 1018 10 16 0.00 0.00
2:56 am 02:56 Clear 34 1.1 28 -2.2 79 79 SE 7 11 30.04 1017 10 16 0.00 0.00
3:56 am 03:56 Clear 34 1.1 27 -2.8 76 76 E 7 11 30.04 1017 10 16 0.00 0.00
4:56 am 04:56 Clear 33 0.6 27 -2.8 78 78 ESE 7 11 30.04 1017 10 16 0.00 0.00
5:56 am 05:56 Clear 37 2.8 29 -1.7 73 73 ENE 12 19 30.04 1017 10 16 0.00 0.00
6:56 am 06:56 Sunny 38 3.3 29 -1.7 70 70 ENE 15 24 30.06 1018 10 16 0.00 0.00
8:56 am 08:56 Sunny 43 6.1 30 -1.1 60 60 NE 15 24 30.09 1019 10 16 0.00 0.00
9:56 am 09:56 Sunny 48 8.9 33 0.6 56 56 NE 14 22 30.10 1019 10 16 0.00 0.00
10:56 am 10:56 Sunny 54 12.2 33 0.6 45 45 NE 12 19 30.07 1018 10 16 0.00 0.00
11:56 am 11:56 Sunny 60 15.6 33 0.6 36 36 E 8 13 30.04 1017 10 16 0.00 0.00
12:56 pm 12:56 Sunny 65 18.3 32 0 29 29 Calm 30.01 1016 10 16 0.00 0.00
1:56 pm 13:56 Sunny 66 18.9 31 -0.6 27 27 Calm 30.00 1016 10 16 0.00 0.00
3:56 pm 15:56 Sunny 69 20.6 27 -2.8 21 21 SSW 8 13 29.96 1015 10 16 0.00 0.00
4:56 pm 16:56 Sunny 67 19.4 23 -5 19 19 S 10 17 29.96 1015 10 16 0.00 0.00
5:56 pm 17:56 Sunny 64 17.8 29 -1.7 27 27 WSW 5 7 29.96 1014 10 16 0.00 0.00
7:56 pm 19:56 Clear 55 12.8 32 0 42 42 ENE 5 7 29.96 1015 10 16 0.00 0.00
9:56 pm 21:56 Clear 46 8 32 0 57 57 ESE 7 11 30.03 1017 10 16 0.00 0.00
10:56 pm 22:56 Clear 43 6.1 31 -0.6 63 63 SSE 10 17 29.98 1015 10 16 0.00 0.00
11:56 pm 23:56 Clear 41 5 30 -1.1 65 65 E 5 7 29.97 1015 10 16 0.00 0.00

Powered by AerisWeather